Home   Weather   Shanghai   Past weeks

Flag for China Past Weather in Shanghai, Shanghai Municipality, China — Yesterday and Last 2 Weeks

72 °F

Partly sunny.

Feels Like: 74 °F
Forecast: 67 / 75 °F
Wind: 8 mph from North

Location: Shanghai Hongqiao Airport

Current Time: Oct 23, 2016 at 4:01:14 PM

Latest Report: Oct 23, 2016 at 3:30 PM

Visibility: N/A

Pressure: 29.95 "Hg

Humidity: 73%

Dew Point: 63 °F

Location of ShanghaiLocation

Past Weather in Shanghai — Graph


Shanghai Temperature Yesterday

Maximum temperature yesterday: 73 °F (at 12:30 PM)
Minimum temperature yesterday: 70 °F (at 9:00 PM)
Average temperature yesterday: 72 °F

High & Low Weather Summary for the Past Weeks

High82 °F (Oct 16, 2:00 PM)100% (Oct 21, 3:00 AM)30.21 "Hg (Oct 21, 3:00 AM)
Low59 °F (Oct 9, 5:30 AM)36% (Oct 11, 1:30 PM)29.68 "Hg (Oct 22, 5:30 PM)
Average70 °F76%30.04 "Hg
* Reported Oct 8 3:00 PM — Oct 23 3:00 PM, Shanghai, Weather by CustomWeather, © 2016

Note: Actual official high and low records may vary slightly from our data, if they occured in-between our weather recording intervals... More about our weather records


Shanghai Weather History for the Previous 24 Hours

Scroll right to see more
Time TempWeatherWind HumidityBarometerVisibility
3:00 PM
Sun, Oct 23
72 °FPartly sunny.13 mph73%29.92 "HgN/A
2:30 PM72 °FPartly sunny.10 mph73%29.92 "HgN/A
2:00 PM72 °FPartly sunny.10 mph73%29.92 "HgN/A
1:30 PM73 °FPartly sunny.10 mph69%29.92 "HgN/A
1:00 PM72 °FPartly sunny.8 mph78%29.92 "HgN/A
12:30 PM72 °FPartly sunny.13 mph73%29.92 "HgN/A
12:00 PM72 °FPartly sunny.13 mph78%29.92 "HgN/A
11:30 AM72 °FPartly sunny.13 mph73%29.92 "HgN/A
11:00 AM72 °FPartly sunny.13 mph73%29.92 "HgN/A
10:30 AM73 °FPartly sunny.15 mph74%29.92 "HgN/A
10:00 AM72 °FScattered clouds.15 mph73%29.92 "HgN/A
9:30 AM70 °FScattered clouds.13 mph83%29.92 "HgN/A
9:00 AM70 °FScattered clouds.13 mph83%29.92 "Hg5 mi
8:30 AM68 °FPartly sunny.8 mph88%29.95 "Hg5 mi
8:00 AM68 °FPartly sunny.10 mph88%29.92 "Hg5 mi
7:30 AM66 °FPartly sunny.10 mph94%29.92 "Hg5 mi
7:00 AM66 °FPartly sunny.10 mph94%29.92 "Hg5 mi
6:30 AM66 °FLight rain. Fog.6 mph94%29.89 "Hg3 mi
6:00 AM66 °FLight rain. Fog.6 mph94%29.89 "Hg2 mi
5:30 AM66 °FLight rain. Passing clouds.10 mph94%29.86 "Hg4 mi
5:00 AM66 °FLight rain. Passing clouds.13 mph94%29.86 "Hg4 mi
4:30 AM66 °FLight rain. Passing clouds.15 mph94%29.83 "Hg4 mi
4:00 AM68 °FPassing clouds.15 mph94%29.80 "HgN/A
3:30 AM68 °FLight rain. Passing clouds.13 mph94%29.80 "HgN/A
3:00 AM68 °FLight rain. Passing clouds.15 mph94%29.80 "HgN/A
2:30 AM68 °FPassing clouds.17 mph94%29.80 "Hg5 mi
2:00 AM68 °FLight rain. Passing clouds.15 mph100%29.77 "Hg4 mi
1:30 AM70 °FLight rain. Passing clouds.15 mph94%29.77 "Hg4 mi
1:00 AM70 °FPassing clouds.15 mph94%29.77 "HgN/A
12:30 AM70 °FPassing clouds.13 mph94%29.74 "HgN/A
12:00 AM70 °FPassing clouds.13 mph94%29.74 "HgN/A
11:30 PM
Sat, Oct 22
70 °FPassing clouds.15 mph94%29.71 "HgN/A
11:00 PM70 °FLight rain. Passing clouds.22 mph94%29.74 "Hg5 mi
10:30 PM70 °FLight rain. Passing clouds.20 mph94%29.74 "Hg4 mi
10:00 PM70 °FRain. Fog.15 mph100%29.74 "Hg3 mi
9:30 PM70 °FRain. Fog.20 mph100%29.71 "Hg3 mi
9:00 PM70 °FRain. Passing clouds.17 mph100%29.71 "Hg4 mi
8:30 PM72 °FHeavy rain. Passing clouds.13 mph94%29.71 "Hg4 mi
8:00 PM72 °FRain. Passing clouds.10 mph94%29.71 "HgN/A
7:30 PM72 °FRain. Passing clouds.13 mph94%29.68 "HgN/A
7:00 PM72 °FLight rain. Passing clouds.13 mph94%29.68 "HgN/A
6:30 PM72 °FLight rain. Passing clouds.15 mph94%29.68 "HgN/A
6:00 PM72 °FLight rain. Passing clouds.15 mph94%29.68 "HgN/A
5:30 PM72 °FLight rain. Passing clouds.15 mph94%29.68 "HgN/A
5:00 PM72 °FLight rain. Partly sunny.13 mph94%29.71 "HgN/A
4:30 PM72 °FLight rain. Partly sunny.17 mph94%29.71 "HgN/A
4:00 PM72 °FLight rain. Partly sunny.17 mph94%29.71 "HgN/A
Weather by CustomWeather, © 2016

See weather overviewHow to use our weather pages